Location: Владивосток
(43.1151°N, 131.8856°E)
Time: 06:30:08
(UTC+10:00)

LO-87 - Pass Details

Date: 05 July 2022
Orbit: 451 x 466 km, 97.4° (Epoch: 08 August)

Event Time Altitude Azimuth Distance (km) Brightness Sun altitude
Exits shadow 00:02:30 23° 66° (ENE) 1,039 ? -21.9°
Drops below altitude 10° 00:05:11 10° 16° (NNE) 1,623 ? -22.0°
Sets 00:07:31 0° 1° (N) 2,508 ? -22.1°
